Regional Weather Roundup
Issued by NWS Bismarck, ND

Home | Current Version | Previous Version | Text Only | Print | Product List | Glossary On
Versions: 1 2 3 4 5 6 7 8 9 10 11 12 13 14 15 16 17 18 19 20 21 22 23 24 25 26 27 28 29 30 31 32 33 34 35 36 37 38 39 40 41 42 43 44 45 46 47 48 49 50
000
ASUS43 KBIS 020610
RWRBIS

NWR BROADCAST TEXT
NATIONAL WEATHER SERVICE BISMARCK ND
1200 AM CST MON MAR 02 2015

NOTE: "FAIR" INDICATES FEW OR NO CLOUDS BELOW 12,000 FEET WITH NO
SIGNIFICANT WEATHER AND/OR OBSTRUCTIONS TO VISIBILITY.


CITY           SKY/WX    TMP DP  RH WIND       PRES   REMARKS
WILLISTON      PTCLDY    13   9  84 SE6       30.24F WCI   4
MINOT          PTCLDY     7   1  76 SW12      30.29S WCI  -8
MINOT AFB      PTCLDY     2  -1  87 W9        30.28F WCI -13
BISMARCK       PTCLDY     4  -1  80 CALM      30.36F
DICKINSON      PTCLDY     5   1  83 S8        30.23F WCI  -8
GARRISON         N/A      4   0  83 CALM      30.30F
HETTINGER ARPT PTCLDY     9   4  80 SE7       30.27F WCI  -2
JAMESTOWN      PTCLDY     8   2  76 W6        30.36R WCI  -2
BEACH          FAIR       7   5  92 S7        30.21F WCI  -5
CARRINGTON     FAIR       5   3  92 MISG      30.35R
CROSBY         FAIR       3   0  85 S12       30.23F WCI -13
HARVEY         FAIR       1   0  92 W8        30.33S WCI -12
HAZEN          FAIR       0  -2  92 CALM      30.33S
LINTON         FAIR       0  -2  92 E7        30.37F WCI -13
MANDAN         FAIR      10   5  79 S9        30.34F WCI  -2
OAKES            N/A      5   1  85 CALM      30.40S
RUGBY          FAIR       1   0  92 SW7       30.31S WCI -11
WATFORD CITY   FAIR       3   0  85 CALM      30.23F
$$

CITY           SKY/WX    TMP DP  RH WIND       PRES   REMARKS
GRAND FORKS    CLEAR      4   0  83 W8        30.37R WCI  -9
GRAND FORKS AF CLEAR      8   2  74 W8        30.38R WCI  -4
DEVILS LAKE    PTCLDY     5  -2  72 W9        30.32S WCI  -9
FARGO          CLEAR      8   2  76 W9        30.40S WCI  -5
CANDO          FAIR       0  -4  85 W8        30.31F WCI -15
CAVALIER       FAIR       7   3  85 W7        30.34S WCI  -5
GWINNER        CLEAR      9   3  78 SW10      30.42R WCI  -6
ROLLA          FAIR       7   5  92 W9        30.27S WCI  -7
WALHALLA         N/A      9   5  85 W9        30.33S WCI  -5
$$

CITY           SKY/WX    TMP DP  RH WIND       PRES   REMARKS
ABERDEEN       PTCLDY     1  -3  83 SW6       30.44R WCI -10
MOBRIDGE       PTCLDY     9   6  88 SE5       30.35S WCI   1
BUFFALO          N/A      9   4  80 SE7       30.15F WCI  -2
RAPID CITY     PTCLDY    12   6  77 S5        30.26F WCI   4
GLASGOW        CLEAR     16   8  71 SE14      30.11F WCI   2
SIDNEY         CLEAR     12   3  67 CALM      30.25F
WOLF POINT     CLEAR     11   6  81 N3        30.18F
GLENDIVE       CLEAR     12   9  85 CALM      30.20F
MILES CITY     CLEAR     15   8  73 SE10      30.15F WCI   2
BAKER          PTCLDY     8   3  80 S13       30.20F WCI  -8
$$

CITY           SKY/WX    TMP DP  RH WIND       PRES   REMARKS
BILLINGS       PTCLDY    21   5  50 CALM      30.03F
GREAT FALLS    MOCLDY    30  10  43 S14       29.87F WCI  19
REGINA         CLEAR      3   0  85 SE15      30.13F WCI -15
ESTEVAN        CLEAR     -2  -6  84 S8        30.23F WCI -17
$$



USA.gov is the U.S. government's official web portal to all federal, state and local government web resources and services.